Location: Barrio de Canyet
(41.4665°N, 2.2381°E)
Time: 01:39:32
(UTC+00:00)

Cosmos 2184 Rocket - Pass Details

Date: 09 April 2020
Orbit: 958 x 1003 km, 82.9° (Epoch: 31 May)

Event Time Altitude Azimuth Distance (km) Brightness Sun altitude
Rises 19:01:25 0° 354° (N) 3,701 7.4 -7.4°
Reaches altitude 10° 19:03:58 10° 356° (N) 2,742 6.7 -7.8°
Maximum altitude 19:10:15 74° 82° (E) 1,013 4.0 -8.9°
Drops below altitude 10° 19:16:25 10° 167° (SSE) 2,695 6.0 -10.0°
Sets 19:18:54 0° 169° (S) 3,633 6.7 -10.5°
